Friday Harbor, WA
on Thursday, January 24, 2013

Thursday
Previous Day Next Day
Daily Summary
 ActualAverageRecord
Temperature
Mean Temperature °F °F  
Max Temperature 44°F 44°F 53°F (2005)
Min Temperature 35°F 36°F 26°F (1997)
Degree Days
Heating Degree Days 26    
Moisture
Dew Point 38°F   
Average Humidity 85    
Maximum Humidity 96    
Minimum Humidity 73    
Precipitation
Precipitation 0.00 in in in ()
Wind
Wind Speed 7 mph   
Max Wind Speed 17 mph   
Max Gust Speed 28 mph   
Visibility 10 miles   
Events Rain   
Averages and records for this station are not official NWS values.
Key: T is trace of precipitation, MM is missing value
Source: NWS Daily Summary
Seasonal Weather Averages
Time(PST)TemperatureDew PointHumidity Pressure Visibility Wind DirectionWind SpeedGust SpeedPrecipitationEvents Conditions
12:53 AM 42.1°F 37.0°F 82% 30.13 in 10.0 miles WSW 4.6 mph - N/A   Clear
1:53 AM 41.0°F 37.0°F 86% 30.16 in 10.0 miles Calm Calm - N/A   Clear
2:53 AM 41.0°F 36.0°F 82% 30.18 in 10.0 miles WSW 4.6 mph - N/A   Clear
4:53 AM 35.1°F 34.0°F 96% 30.18 in 10.0 miles Calm Calm - N/A   Partly Cloudy
5:53 AM 37.0°F 36.0°F 96% 30.20 in 10.0 miles South 4.6 mph - N/A   Scattered Clouds
6:16 AM 39.2°F 37.4°F 93% 30.19 in 10.0 miles SSE 5.8 mph - N/A   Scattered Clouds
6:30 AM 41.0°F 39.2°F 93% 30.19 in 10.0 miles SE 8.1 mph - N/A   Mostly Cloudy
6:53 AM 41.0°F 39.9°F 96% 30.19 in 10.0 miles ESE 8.1 mph - N/A   Overcast
7:10 AM 41.0°F 39.2°F 93% 30.18 in 10.0 miles SE 8.1 mph - N/A   Overcast
7:53 AM 41.0°F 39.0°F 93% 30.19 in 10.0 miles ESE 6.9 mph - N/A   Overcast
8:24 AM 41.0°F 39.2°F 93% 30.17 in 10.0 miles East 9.2 mph - N/A   Overcast
8:53 AM 42.1°F 37.9°F 85% 30.17 in 10.0 miles East 6.9 mph - N/A   Mostly Cloudy
9:48 AM 42.8°F 37.4°F 81% 30.17 in 10.0 miles ESE 11.5 mph - N/A   Overcast
9:53 AM 42.1°F 37.9°F 85% 30.17 in 10.0 miles ESE 11.5 mph - N/A   Overcast
10:53 AM 43.0°F 39.0°F 86% 30.17 in 10.0 miles ESE 12.7 mph - N/A   Overcast
11:45 AM 42.8°F 37.4°F 81% 30.14 in 10.0 miles East 11.5 mph - N/A   Overcast
11:53 AM 44.1°F 37.9°F 79% 30.13 in 10.0 miles East 11.5 mph - N/A   Overcast
12:53 PM 44.1°F 37.0°F 76% 30.11 in 10.0 miles East 12.7 mph - N/A   Overcast
1:53 PM 43.0°F 37.0°F 80% 30.07 in 10.0 miles East 12.7 mph - N/A   Overcast
2:53 PM 44.1°F 36.0°F 73% 30.08 in 10.0 miles ESE 11.5 mph - N/A   Overcast
3:53 PM 43.0°F 37.0°F 80% 30.06 in 10.0 miles East 10.4 mph - N/A   Overcast
4:33 PM 42.8°F 37.4°F 81% 30.07 in 7.0 miles East 4.6 mph - 0.00 in Rain Light Rain
4:53 PM 42.1°F 37.0°F 82% 30.06 in 10.0 miles NE 4.6 mph - 0.00 in Rain Light Rain
5:01 PM 42.8°F 37.4°F 81% 30.05 in 10.0 miles NE 4.6 mph - 0.00 in Rain Light Rain
5:53 PM 43.0°F 36.0°F 76% 30.04 in 10.0 miles East 6.9 mph - 0.00 in   Overcast
6:08 PM 42.8°F 35.6°F 76% 30.04 in 10.0 miles ESE 12.7 mph 16.1 mph N/A   Overcast
6:53 PM 43.0°F 39.9°F 89% 30.04 in 10.0 miles ESE 15.0 mph 23.0 mph 0.00 in   Overcast
7:53 PM 43.0°F - N/A% 30.02 in 10.0 miles SE 16.1 mph 24.2 mph N/A   Overcast
8:53 PM 44.1°F 39.0°F 82% 30.01 in 10.0 miles ESE 15.0 mph 21.9 mph N/A   Overcast
9:53 PM 44.1°F 39.9°F 85% 30.00 in 10.0 miles SE 17.3 mph 27.6 mph 0.00 in   Overcast
10:33 PM 44.6°F 39.2°F 81% 29.99 in 10.0 miles ESE 17.3 mph 23.0 mph N/A   Overcast
10:53 PM 44.1°F 41.0°F 89% 30.00 in 10.0 miles SE 13.8 mph 23.0 mph N/A   Overcast
11:53 PM 44.1°F 41.0°F 89% 30.01 in 10.0 miles SE 13.8 mph 23.0 mph 0.00 in   Overcast
Moon Phase
Jan. 24 Jan. 26 Feb. 03 Feb. 10 Feb. 17
Sunrise:07:50 AM (PST) Moon Rise:03:03 PM (PST)1/24
Sunset:04:58 PM (PST) Moon Set:05:55 AM (PST)1/24

Copyright © 2014 The Weather Underground, Inc.